Location: Hermaringen
(48.5952°N, 10.2585°E)
Time: 20:53:34
(UTC+00:00)

SR - Visible Passes

Search period start: 15 February 2026 00:00
Search period end: 25 February 2026 00:00
Orbit: 574 x 847 km, 66.7° (Epoch: 14 February)

Date Brightness Start Highest point End Pass type
(mag) Time Alt. Az. Time Alt. Az. Time Alt. Az.
15 Feb ? 03:57:40 14° SSE 04:00:32 28° ESE 04:04:17 10° NE visible
15 Feb ? 05:38:00 10° WSW 05:42:01 40° NW 05:46:16 10° NNE visible
16 Feb ? 03:05:02 12° ESE 03:06:04 12° ESE 03:07:51 10° E visible
16 Feb ? 04:44:08 21° SW 04:46:57 83° NW 04:51:26 10° NE visible
17 Feb ? 03:51:16 38° SSE 03:52:07 43° ESE 03:56:19 10° NE visible
17 Feb ? 05:30:20 11° WSW 05:33:55 29° NW 05:37:54 10° NNE visible
18 Feb ? 02:58:15 19° E 02:58:15 19° E 03:00:39 10° ENE visible
18 Feb ? 04:37:19 37° WSW 04:38:43 56° NW 04:43:10 10° NNE visible
19 Feb ? 03:44:11 62° E 03:44:11 62° E 03:48:12 10° NE visible
19 Feb ? 05:23:14 14° W 05:25:53 22° NW 05:29:29 10° NNE visible
20 Feb ? 02:50:56 21° ENE 02:50:56 21° ENE 02:52:52 10° NE visible
20 Feb ? 04:30:00 37° WNW 04:30:33 39° NW 04:34:50 10° NNE visible
21 Feb ? 03:36:41 47° NNE 03:36:41 47° NNE 03:39:58 10° NE visible
21 Feb ? 05:15:43 13° WNW 05:17:55 18° NNW 05:21:02 10° NNE visible
22 Feb ? 02:43:19 20° NE 02:43:19 20° NE 02:44:53 10° NE visible
22 Feb ? 04:22:21 29° NW 04:22:27 29° NW 04:26:26 10° NNE visible
23 Feb ? 03:28:55 33° N 03:28:55 33° N 03:31:42 10° NNE visible
23 Feb ? 05:07:58 11° NW 05:10:00 14° NNW 05:12:31 10° N visible
24 Feb ? 02:35:27 19° NE 02:35:27 19° NE 02:36:45 10° NE visible
24 Feb ? 04:14:29 22° NW 04:14:29 22° NW 04:18:02 10° NNE visible
